Location: Oberkirch
(48.5323°N, 8.0787°E)
Time: 16:42:21
(UTC+00:00)

SL-24 R/B - RUBIN 2 - Pass Details

Date: 21 February 2026
Orbit: 603 x 984 km, 64.6° (Epoch: 8 March)

Event Time Altitude Azimuth Distance (km) Brightness Sun altitude
Exits shadow 03:17:21 12° 4° (N) 1,846 6.2 -31.3°
Drops below altitude 10° 03:18:07 10° 13° (NNE) 1,989 6.5 -31.2°
Sets 03:21:16 0° 38° (NE) 2,871 7.8 -30.7°
